Location: �perlecques
(50.8057°N, 2.1521°E)
Time: 05:15:44
(UTC+00:00)

Cosmos 1953 - Pass Details

Date: 09 April 2020
Orbit: 539 x 557 km, 82.5° (Epoch: 29 May)

Event Time Altitude Azimuth Distance (km) Brightness Sun altitude
Rises 19:32:38 0° 210° (SSW) 2,694 5.9 -9.0°
Reaches altitude 10° 19:34:54 10° 219° (SW) 1,809 5.1 -9.3°
Maximum altitude 19:38:36 36° 287° (WNW) 879 4.1 -9.9°
Drops below altitude 10° 19:42:20 10° 355° (N) 1,833 5.4 -10.4°
Sets 19:44:39 0° 5° (N) 2,735 6.2 -10.7°
